Starlink 5989

operational
NORAD ID: 56781 Int'l Des: 2023-078 Owner: SPXS Country: US Constellation: starlink
LEOCIRCULAR

Über Starlink 5989

Beschreibung wird geladen...

Live-Position

3D-Globus wird geladen...

Nächste Überflüge

Höhenverlauf

Altitude vs Time

uPlot chart will show altitude changes over time

Zweizeiliger Elementsatz

1 56781U 23078Q 25306.41371556 -.00002031 00000-0 -16256-3 0 9996
2 56781 69.9976 305.4387 0002951 264.5369 95.5453 14.98317175133618
Epoch: 2. Nov. 2025 • Age: 23 hours

Aktueller Status

Höhe 576.0 km
Geschwindigkeit 7.58 km/s
Subsatellitenpunkt 28.82°N, 66.72°W
Startdatum 31. Mai 2023
Alter 2.4 years
Typ internet

Technische Details

Klassifizierung Payload
Masse 305.00 kg
Trockenmasse 290.00 kg
Gesamtmasse 305.00 kg
Länge 0.20 m
Durchmesser 2.80 m
Spannweite 9.00 m
Form Box + pan
Hersteller SPXS
Bus-Typ Starlink
Phasenstatus In Orbit
Besitzer/Staat SPXS/US

Große Konstellationen

Loading constellations...